Powrót do katalogu

LILIUM-3

AktywnyNaukaSSO
NORAD 66770·PAYLOAD·🇹🇼 Taiwan

Wystrzelony Nov 28, 2025 z Vandenberg Space Force Base

Loading…

Następne Przeloty (najbliższe 24 godziny)

TLE

ŚwieżeSource: Space-Track

Epoka: Sep 14, 2026, 12:13 UTC

1 66770U 25276DJ  26257.50928776  .00001764  00000-0  85386-4 0  9996
2 66770  97.4171 329.7766 0001012   1.7309 358.3929 15.19877490 43996

Śledź LILIUM-3 w czasie rzeczywistym z AllMySat

Download on the App Store